Location: Riddle Hill
(39.7867°N, 89.7645°W)
Time: 21:13:51
(UTC+00:00)

CZ-4B R/B - Pass Details

Date: 29 October 2020
Orbit: 808 x 882 km, 99.1° (Epoch: 01 December)

Event Time Altitude Azimuth Distance (km) Brightness Sun altitude
Rises 23:26:40 0° 168° (SSE) 3,453 6.4 -5.8°
Reaches altitude 10° 23:29:04 10° 169° (S) 2,512 5.7 -6.2°
Maximum altitude 23:34:40 79° 256° (WSW) 882 3.5 -7.3°
Drops below altitude 10° 23:40:12 10° 343° (NNW) 2,484 5.7 -8.3°
Sets 23:42:33 0° 345° (NNW) 3,413 6.4 -8.8°
